Regional Weather Roundup
Issued by NWS Burlington, VT

Home | Current Version | Previous Version | Text Only | Print | Product List | Glossary On
Versions: 1 2 3 4 5 6 7 8 9 10 11 12 13 14 15 16 17 18 19 20 21 22 23 24 25 26 27 28 29 30 31 32 33 34 35 36 37 38 39 40 41 42 43 44 45 46 47 48 49 50
000
ASUS41 KBTV 290930
RWRBTV
VERMONT REGIONAL WEATHER ROUNDUP
NATIONAL WEATHER SERVICE BURLINGTON VT
500 AM EDT TUE JUL 29 2014

NOTE: "FAIR" INDICATES FEW OR NO CLOUDS BELOW 12,000 FEET WITH NO
SIGNIFICANT WEATHER AND/OR OBSTRUCTIONS TO VISIBILITY.

* THESE REPORTS ARE NOT UNDER NWS QUALITY CONTROL AND/OR DO NOT
  REPORT WEATHER SUCH AS PRECIPITATION AND FOG.

VTZ001>019-291000-
_____VERMONT_____


CITY           SKY/WX    TMP DP  RH WIND       PRES   REMARKS
BURLINGTON     CLOUDY    59  54  83 W7        29.73R
MONTPELIER     CLOUDY    55  53  93 W6        29.74R
MORRISVILLE    CLOUDY    56  53  90 CALM      29.72S
ST. JOHNSBURY*   N/A     58  52  80 MISG      29.67R
LYNDONVILLE*     N/A    N/A N/A N/A MISG        N/A
MIDDLEBURY*    CLOUDY    56  56 100 CALM      29.73R FOG
RUTLAND*       CLOUDY    55  55 100 CALM      29.74R
SPRINGFIELD    CLOUDY    60  53  77 NW5       29.72R
HIGHGATE*      FAIR      55  52  92 CALM      29.72R
NEWPORT*       CLOUDY   N/A N/A N/A W6        29.70S
BENNINGTON     PTSUNNY   57  55  93 CALM      29.76R
SUTTON*          N/A     54 N/A N/A MISG        N/A
MT. MANSFIELD*   N/A     45 N/A N/A NW17G30     N/A

_____LAKE CHAMPLAIN_____


CITY           SKY/WX    TMP DP  RH WIND       PRES   REMARKS
COLCHESTER RF*   N/A     59  54  82 NW15        N/A
DIAMOND ISL*     N/A     61  52  72 W17         N/A

$$

NYZ007-026>031-035-052-083-291000-
_____NORTHERN NEW YORK_____


CITY           SKY/WX    TMP DP  RH WIND       PRES   REMARKS
PLATTSBURGH    MOSUNNY   56  51  84 VRB5      29.72R
SARANAC LAKE   PTSUNNY   47  46  97 CALM      29.77R
MASSENA        SUNNY     54  50  86 NW8       29.77R
OGDENSBURG*    SUNNY     54  52  94 NW5       29.79R
POTSDAM*       SUNNY     50  50 100 SW3       29.79R
WATERTOWN      CLOUDY    54  49  83 CALM      29.80R
FT DRUM        PTSUNNY   52  52 100 W5        29.80R
ALBANY         CLOUDY    60  54  80 W9        29.76R
GLENS FALLS    PTSUNNY   58  55  90 SW3       29.74R

$$
NHZ002-005-011-291000-
_____NEW HAMPSHIRE_____


CITY           SKY/WX    TMP DP  RH WIND       PRES   REMARKS
LEBANON        CLOUDY    61  54  77 N3        29.70R
KEENE          PTSUNNY   59  48  67 CALM      29.73R
MT WASHINGTON  FOG       43  43 100 NW39        N/A  VSB 1/16
PLYMOUTH       CLOUDY    59  54  82 NW10      29.67R
WHITEFIELD     CLOUDY    57  53  86 W8        29.67R

$$

_____REGIONAL QUEBEC LOCATIONS_____


CITY           SKY/WX    TMP DP  RH WIND       PRES   REMARKS
MONTREAL       MOSUNNY   54  50  87 W8        29.72R
QUEBEC CITY    PTSUNNY   57  54  88 W12       29.55R
SHERBROOKE     CLOUDY    54  54 100 W8        29.65R

_____REGIONAL ONTARIO LOCATIONS_____


CITY           SKY/WX    TMP DP  RH WIND       PRES   REMARKS
OTTAWA         MOSUNNY   52  50  93 W7        29.79R

______KEY______
VSB  - VISIBILITY IN MILES
WCI  - WIND CHILL INDEX
HX   - HEAT INDEX
$$



USA.gov is the U.S. government's official web portal to all federal, state and local government web resources and services.